Mount Airy, NC

12:44 AM EST on December 11, 2019 (GMT -0500)
Mount Airy-Surry County

Weather History for KMWK - June, 2019

Change the Weather History Date:

Sunday, June 2, 2019

  Actual Average (KINT) Record (KINT)
Temperature  
Mean Temperature 72 °F -  
Max Temperature 85 °F 78 °F 97 °F (1989)
Min Temperature 59 °F 59 °F 35 °F (1966)
Cooling Degree Days 7    
Growing Degree Days 22 (Base 50)    
Moisture  
Dew Point 61 °F    
Average Humidity 72    
Maximum Humidity 91    
Minimum Humidity 36    
Precipitation  
Precipitation 0.00 in - - ()
Sea Level Pressure  
Sea Level Pressure 29.89 in    
Wind  
Wind Speed 1 mph ()    
Max Wind Speed 7 mph    
Max Gust Speed 22 mph    
Visibility 9.2 miles    
Events Rain    
Averages and records for this station are not official NWS values.
T = Trace of Precipitation, MM = Missing Value Source: Averaged Metar Reports

Daily Weather History Graph

Daily Weather History Graph

Search for Another Location

Airport or City:

Astronomy

Jun. 02, 2019 Rise Set
Actual Time 6:05 AM EDT 8:35 PM EDT
Civil Twilight 5:35 AM EDT 9:05 PM EDT
Nautical Twilight 4:58 AM EDT 9:42 PM EDT
Astronomical Twilight 4:17 AM EDT 10:23 PM EDT
Moon 5:40 AM EDT (6/2) 7:54 PM EDT (6/2)
Length of Visible Light 15h 30m
Length of Day
14h 30m
Waning Crescent, 1% of the Moon is Illuminated
Jun 2
Waning Crescent
Jun 3
New
Jun 10
First Quarter
Jun 17
Full
Jun 25
Last Quarter

Hourly Weather History & Observations

Time (EDT) Temp. Heat Index Dew Point Humidity Pressure Visibility Wind Dir Wind Speed Gust Speed Precip Events Conditions
12:00 AM 62.2 °F - 59.2 °F 90% 29.92 in 10.0 mi Calm Calm - N/A   Clear
12:20 AM 61.7 °F - 59.0 °F 91% 29.93 in 10.0 mi Calm Calm - N/A   Clear
12:40 AM 61.3 °F - 58.6 °F 91% 29.93 in 10.0 mi Calm Calm - N/A   Clear
1:00 AM 61.7 °F - 59.0 °F 91% 29.92 in 10.0 mi Calm Calm - N/A   Clear
1:20 AM 61.5 °F - 58.8 °F 91% 29.91 in 10.0 mi Calm Calm - N/A   Clear
1:40 AM 61.3 °F - 58.6 °F 91% 29.90 in 10.0 mi Calm Calm - N/A   Clear
2:00 AM 61.5 °F - 58.8 °F 91% 29.90 in 10.0 mi Calm Calm - N/A   Clear
2:20 AM 61.7 °F - 59.0 °F 91% 29.89 in 10.0 mi North 3.5 mph - N/A   Clear
2:40 AM 61.9 °F - 59.2 °F 91% 29.89 in 10.0 mi Calm Calm - N/A   Clear
3:00 AM 61.5 °F - 58.8 °F 91% 29.88 in 7.0 mi Calm Calm - N/A   Clear
3:20 AM 60.8 °F - 58.1 °F 91% 29.88 in 7.0 mi Calm Calm - N/A   Clear
3:40 AM 60.3 °F - 57.6 °F 91% 29.88 in 5.0 mi Calm Calm - N/A   Clear
4:00 AM 60.4 °F - 57.7 °F 91% 29.87 in 10.0 mi Calm Calm - N/A   Clear
4:20 AM 59.9 °F - 57.4 °F 91% 29.88 in 7.0 mi Calm Calm - N/A   Clear
4:40 AM 60.3 °F - 57.6 °F 91% 29.88 in 7.0 mi Calm Calm - N/A   Clear
5:00 AM 60.1 °F - 57.4 °F 91% 29.88 in 5.0 mi Calm Calm - N/A   Clear
5:20 AM 59.9 °F - 57.2 °F 91% 29.88 in 7.0 mi Calm Calm - N/A   Clear
5:40 AM 59.9 °F - 57.2 °F 91% 29.88 in 10.0 mi Calm Calm - N/A   Clear
6:00 AM 60.1 °F - 57.4 °F 91% 29.88 in 10.0 mi Calm Calm - N/A   Clear
6:20 AM 60.3 °F - 57.6 °F 91% 29.89 in 10.0 mi Calm Calm - N/A   Clear
6:40 AM 61.2 °F - 58.5 °F 91% 29.89 in 10.0 mi Calm Calm - N/A   Clear
7:00 AM 62.1 °F - 59.4 °F 91% 29.90 in 10.0 mi Calm Calm - N/A   Clear
7:20 AM 62.8 °F - 60.1 °F 91% 29.90 in 10.0 mi Calm Calm - N/A   Clear
7:40 AM 64.9 °F - 61.9 °F 90% 29.90 in 10.0 mi Calm Calm - N/A   Clear
8:00 AM 66.2 °F - 62.4 °F 88% 29.90 in 10.0 mi Calm Calm - N/A   Clear
8:20 AM 66.4 °F - 62.8 °F 88% 29.91 in 10.0 mi Calm Calm - N/A   Clear
8:40 AM 68.2 °F - 63.9 °F 86% 29.92 in 10.0 mi Calm Calm - N/A   Clear
9:00 AM 70.5 °F - 64.8 °F 82% 29.91 in 10.0 mi Calm Calm - N/A   Clear
9:20 AM 70.7 °F - 63.7 °F 78% 29.92 in 10.0 mi Calm Calm - N/A   Clear
9:40 AM 72.5 °F - 63.9 °F 74% 29.91 in 10.0 mi Calm Calm - N/A   Clear
10:00 AM 73.6 °F - 64.9 °F 74% 29.92 in 10.0 mi WSW 3.5 mph - N/A   Clear
10:20 AM 74.8 °F - 67.1 °F 77% 29.91 in 10.0 mi Calm Calm - N/A   Clear
10:40 AM 76.8 °F - 67.3 °F 72% 29.90 in 10.0 mi Calm Calm - N/A   Clear
11:00 AM 77.4 °F - 65.8 °F 67% 29.90 in 10.0 mi Calm Calm - N/A   Clear
11:20 AM 77.9 °F - 65.8 °F 66% 29.90 in 10.0 mi Calm Calm - N/A   Clear
11:40 AM 78.8 °F - 64.9 °F 62% 29.90 in 10.0 mi Calm Calm - N/A   Clear
12:00 PM 79.0 °F - 63.3 °F 59% 29.90 in 10.0 mi Calm Calm - N/A   Clear
12:20 PM 81.0 °F 82.6 °F 64.2 °F 57% 29.90 in 10.0 mi SW 3.5 mph - N/A   Clear
12:40 PM 80.6 °F 81.9 °F 63.0 °F 55% 29.90 in 10.0 mi Calm Calm - N/A   Clear
1:00 PM 82.2 °F 83.0 °F 61.7 °F 50% 29.89 in 10.0 mi WNW 6.9 mph - N/A   Clear
1:20 PM 82.6 °F 82.9 °F 60.6 °F 47% 29.89 in 10.0 mi SSW 3.5 mph - N/A   Clear
1:40 PM 81.7 °F 82.2 °F 60.1 °F 48% 29.88 in 10.0 mi NW 4.6 mph - N/A   Scattered Clouds
2:00 PM 82.8 °F 83.3 °F 61.0 °F 48% 29.87 in 10.0 mi West 3.5 mph - N/A   Clear
2:20 PM 83.8 °F 83.6 °F 58.8 °F 43% 29.87 in 10.0 mi Calm Calm - N/A   Clear
2:40 PM 83.5 °F 83.1 °F 58.3 °F 42% 29.86 in 10.0 mi WSW 4.6 mph - N/A   Clear
3:00 PM 83.5 °F 82.9 °F 57.6 °F 41% 29.85 in 10.0 mi SW 4.6 mph - N/A   Clear
3:20 PM 84.7 °F 84.0 °F 57.7 °F 40% 29.85 in 10.0 mi NW 3.5 mph - N/A   Clear
3:40 PM 84.9 °F 83.6 °F 55.4 °F 36% 29.85 in 10.0 mi WSW 4.6 mph - N/A   Scattered Clouds
4:00 PM 85.1 °F 84.1 °F 57.0 °F 38% 29.85 in 10.0 mi SSW 3.5 mph - N/A   Clear
4:20 PM 83.7 °F 82.7 °F 55.4 °F 38% 29.85 in 10.0 mi Calm Calm - N/A   Clear
4:40 PM 84.2 °F 83.5 °F 57.2 °F 40% 29.84 in 10.0 mi WSW 3.5 mph - N/A   Clear
5:00 PM 84.6 °F 84.0 °F 58.6 °F 41% 29.84 in 10.0 mi South 4.6 mph - N/A   Clear
5:20 PM 83.3 °F 83.2 °F 59.0 °F 44% 29.84 in 10.0 mi SSW 4.6 mph - N/A   Clear
5:40 PM 83.3 °F 83.4 °F 60.1 °F 45% 29.83 in 10.0 mi Calm Calm - N/A   Clear
6:00 PM 81.9 °F 82.6 °F 61.3 °F 50% 29.83 in 10.0 mi Calm Calm - N/A   Scattered Clouds
6:20 PM 82.9 °F 83.7 °F 62.1 °F 49% 29.83 in 10.0 mi SSE 3.5 mph - N/A   Scattered Clouds
6:40 PM 81.7 °F 82.4 °F 61.5 °F 50% 29.83 in 10.0 mi Calm Calm - N/A   Clear
7:00 PM 81.7 °F 83.2 °F 64.2 °F 55% 29.85 in 10.0 mi WSW 3.5 mph - N/A Rain Light Rain
7:20 PM 81.5 °F 82.8 °F 63.5 °F 54% 29.85 in 10.0 mi Calm Calm - N/A   Clear
7:40 PM 80.2 °F 81.6 °F 63.1 °F 56% 29.85 in 10.0 mi Calm Calm - N/A   Clear
8:00 PM 78.8 °F - 63.9 °F 60% 29.86 in 10.0 mi Calm Calm - N/A   Clear
8:20 PM 77.4 °F - 65.8 °F 67% 29.85 in 10.0 mi North 3.5 mph - N/A   Scattered Clouds
8:40 PM 77.4 °F - 63.7 °F 63% 29.90 in 7.0 mi WNW 6.9 mph - N/A   Mostly Cloudy
9:00 PM 67.1 °F - 61.7 °F 83% 29.94 in 5.0 mi WNW 4.6 mph 21.9 mph N/A Rain Heavy Rain
9:20 PM 65.7 °F - 61.9 °F 88% 29.92 in 7.0 mi Calm Calm - N/A Rain Light Rain
9:40 PM 65.3 °F - 62.2 °F 90% 29.91 in 7.0 mi Calm Calm - N/A   Light Drizzle
10:00 PM 64.8 °F - 62.1 °F 91% 29.92 in 7.0 mi Calm Calm - N/A   Clear
10:20 PM 64.9 °F - 62.2 °F 91% 29.92 in 5.0 mi Calm Calm - N/A   Clear
10:40 PM 64.8 °F - 62.1 °F 91% 29.93 in 5.0 mi WNW 3.5 mph - N/A   Clear
11:00 PM 64.6 °F - 61.9 °F 91% 29.92 in 7.0 mi Calm Calm - N/A   Light Drizzle
11:20 PM 64.4 °F - 61.7 °F 91% 29.92 in 7.0 mi Calm Calm - N/A   Clear
11:40 PM 63.9 °F - 61.2 °F 91% 29.92 in 7.0 mi Calm Calm - N/A   Clear